Golden Blaze — SVAG6 — position and weather

sailwx.info

Track history (hours):
 
Tides and Currents Weather Stations Pressure Air Temp Water Temp Dewpoint Dewpoint Depression Visibility Wind Speed Wind Dir Waves Ship Positions

Golden Blaze

Last reported at 2014-Jul-25 10:33 UTC. Time now 2014-Jul-25 11:22 UTC.
Position N 36°23' E 025°21'.

Length 74 m; draft 3 m.

Type: Ship. MMSI: 241148000.

Date/timePositionNaut miles runAvg speedWind from/ knotsBaromVisibWave heightAir tempDewpointWater temp
2014-Jul-25 10:33N 36°23' E 025°21'1 0.4
2014-Jul-25 09:09N 36°23' E 025°21'1 2.1
2014-Jul-25 08:34N 36°23' E 025°23'2525.0
2014-Jul-25 07:34N 35°59' E 025°16'2826.2
2014-Jul-25 06:30N 35°31' E 025°11'15 1.1
2014-Jul-24 16:30N 35°46' E 025°12'2526.9
2014-Jul-24 15:34N 36°11' E 025°19'1312.4
2014-Jul-24 14:29N 36°23' E 025°26'4 0.7
2014-Jul-24 09:08N 36°23' E 025°21'3 4.8
2014-Jul-24 08:34N 36°23' E 025°24'2524.6
2014-Jul-24 07:34N 36°00' E 025°14'8 0.5
2014-Jul-23 16:33N 35°54' E 025°08'2524.9
2014-Jul-23 15:33N 36°17' E 025°18'8 7.8
2014-Jul-23 14:28N 36°23' E 025°26'0 0.0
2014-Jul-23 13:24N 36°23' E 025°26'0 0.0
2014-Jul-23 12:30N 36°23' E 025°26'0 0.0
2014-Jul-23 11:12N 36°23' E 025°26'0 0.0
2014-Jul-23 10:28N 36°23' E 025°26'0 0.0
2014-Jul-23 09:04N 36°23' E 025°26'0 0.3
2014-Jul-23 08:33N 36°23' E 025°26'2222.2
2014-Jul-23 07:34N 36°03' E 025°15'2625.6
2014-Jul-23 06:33N 35°38' E 025°07'1817.8
2014-Jul-23 05:33N 35°21' E 025°08'0 0.0
2014-Jul-23 04:26N 35°21' E 025°08'0 0.0
2014-Jul-23 03:32N 35°21' E 025°08'0 0.0
2014-Jul-23 02:33N 35°21' E 025°08'0 0.0
2014-Jul-23 00:33N 35°21' E 025°08'0 0.0
2014-Jul-22 23:29N 35°21' E 025°08'0 0.0
2014-Jul-22 22:31N 35°21' E 025°08'0 0.0
2014-Jul-22 17:11N 35°21' E 025°08'0 0.0
2014-Jul-22 12:32N 35°21' E 025°08'0 0.0
2014-Jul-22 07:30N 35°21' E 025°08'0 0.0
2014-Jul-22 04:32N 35°21' E 025°08'0 0.0
2014-Jul-22 03:33N 35°21' E 025°08'0 0.0
2014-Jul-22 02:22N 35°21' E 025°08'0 0.0
2014-Jul-21 21:26N 35°21' E 025°08'0 0.0
2014-Jul-21 20:30N 35°21' E 025°08'0 0.0
2014-Jul-21 20:14N 35°21' E 025°08'27 7.2
2014-Jul-21 16:32N 35°47' E 025°13'2626.5
2014-Jul-21 15:33N 36°13' E 025°19'1210.1
2014-Jul-21 14:23N 36°23' E 025°26'0 0.0
2014-Jul-21 13:07N 36°23' E 025°26'0 0.0
2014-Jul-21 12:25N 36°23' E 025°26'0 0.0
2014-Jul-21 11:12N 36°23' E 025°26'0 0.0
2014-Jul-21 10:32N 36°23' E 025°26'0 0.0
2014-Jul-21 09:25N 36°23' E 025°26'2 1.9
2014-Jul-21 08:33N 36°23' E 025°24'2624.8
2014-Jul-21 07:32N 35°59' E 025°15'8 0.6
2014-Jul-20 16:25N 35°50' E 025°14'2326.9
2014-Jul-20 15:33N 36°13' E 025°19'1210.8
2014-Jul-20 14:29N 36°23' E 025°26'0 0.0
2014-Jul-20 13:08N 36°23' E 025°26'0 0.0
2014-Jul-20 12:32N 36°23' E 025°26'0 0.0
2014-Jul-20 11:33N 36°23' E 025°26'0 0.0
2014-Jul-20 10:33N 36°23' E 025°26'0 0.0
2014-Jul-20 09:29N 36°23' E 025°26'2 1.9
2014-Jul-20 08:33N 36°23' E 025°23'2322.7
2014-Jul-20 07:33N 36°01' E 025°16'41 3.9
2014-Jul-19 21:07N 35°21' E 025°08'0 0.0
2014-Jul-19 20:11N 35°21' E 025°08'8 9.9
2014-Jul-19 19:25N 35°26' E 025°01'28 9.8
2014-Jul-19 16:31N 35°53' E 024°55'2425.0
2014-Jul-19 15:33N 36°13' E 025°13'1513.9
2014-Jul-19 14:30N 36°23' E 025°26'2 2.2
2014-Jul-19 13:33N 36°24' E 025°23'0 0.0
2014-Jul-19 12:32N 36°24' E 025°23'0 0.0
2014-Jul-19 11:33N 36°24' E 025°23'0 0.0
2014-Jul-19 10:33N 36°24' E 025°23'0 0.0
2014-Jul-19 09:33N 36°24' E 025°23'2 2.0
2014-Jul-19 08:33N 36°23' E 025°26'2322.5
2014-Jul-19 07:34N 36°07' E 025°07'2424.0
2014-Jul-19 06:34N 35°47' E 024°49'31 5.9
2014-Jul-19 01:19N 35°21' E 025°08'0 0.0
2014-Jul-19 00:19N 35°21' E 025°08'0 0.0
2014-Jul-18 23:15N 35°21' E 025°08'32 4.8
2014-Jul-18 16:33N 35°52' E 025°14'2524.7
2014-Jul-18 15:34N 36°17' E 025°20'8 8.1
2014-Jul-18 14:33N 36°23' E 025°26'0 0.0
2014-Jul-18 13:33N 36°23' E 025°26'1 0.6
2014-Jul-18 12:32N 36°24' E 025°25'1 0.6
2014-Jul-18 11:27N 36°23' E 025°26'0 0.0
2014-Jul-18 10:31N 36°23' E 025°26'0 0.0
2014-Jul-18 09:28N 36°23' E 025°26'3 3.7
2014-Jul-18 08:33N 36°23' E 025°22'2423.8
2014-Jul-18 07:33N 35°59' E 025°16'2624.2
2014-Jul-18 06:29N 35°33' E 025°12'13 2.5
2014-Jul-18 01:19N 35°21' E 025°08'29 3.1
2014-Jul-17 16:05N 35°49' E 025°16'1527.6
2014-Jul-17 15:34N 36°03' E 025°19'2120.4
2014-Jul-17 14:32N 36°23' E 025°26'2 2.1
2014-Jul-17 13:32N 36°24' E 025°23'0 0.0
2014-Jul-17 12:33N 36°24' E 025°23'0 0.0
2014-Jul-17 11:30N 36°24' E 025°23'0 0.0
2014-Jul-17 10:33N 36°24' E 025°23'0 0.0
2014-Jul-17 09:33N 36°24' E 025°23'0 0.2
2014-Jul-17 08:33N 36°24' E 025°23'1212.5
2014-Jul-17 07:34N 36°12' E 025°18'19 1.2
2014-Jul-16 16:07N 35°53' E 025°16'1528.1
2014-Jul-16 15:34N 36°09' E 025°18'15 7.7
2014-Jul-16 13:33N 36°24' E 025°23'0 0.0
2014-Jul-16 12:33N 36°24' E 025°23'0 0.0
2014-Jul-16 11:33N 36°24' E 025°23'0 0.0
2014-Jul-16 10:33N 36°24' E 025°23'0 0.0
2014-Jul-16 09:32N 36°24' E 025°23'1 1.2
2014-Jul-16 08:33N 36°23' E 025°24'2524.7
2014-Jul-16 07:34N 35°59' E 025°15'39 1.9
2014-Jul-15 11:25N 35°21' E 025°08'  
Track history (hours):
 
Tides and Currents Weather Stations Pressure Air Temp Water Temp Dewpoint Dewpoint Depression Visibility Wind Speed Wind Dir Waves Ship Positions

Golden Blaze

Last reported at 2014-Jul-25 10:33 UTC. Time now 2014-Jul-25 11:22 UTC.
Position N 36°23' E 025°21'.

Length 74 m; draft 3 m.

Type: Ship. MMSI: 241148000.

Date/timePositionNaut miles runAvg speedWind from/ knotsBaromVisibWave heightAir tempDewpointWater temp
2014-Jul-25 10:33N 36°23' E 025°21'1 0.4
2014-Jul-25 09:09N 36°23' E 025°21'1 2.1
2014-Jul-25 08:34N 36°23' E 025°23'2525.0
2014-Jul-25 07:34N 35°59' E 025°16'2826.2
2014-Jul-25 06:30N 35°31' E 025°11'15 1.1
2014-Jul-24 16:30N 35°46' E 025°12'2526.9
2014-Jul-24 15:34N 36°11' E 025°19'1312.4
2014-Jul-24 14:29N 36°23' E 025°26'4 0.7
2014-Jul-24 09:08N 36°23' E 025°21'3 4.8
2014-Jul-24 08:34N 36°23' E 025°24'2524.6
2014-Jul-24 07:34N 36°00' E 025°14'8 0.5
2014-Jul-23 16:33N 35°54' E 025°08'2524.9
2014-Jul-23 15:33N 36°17' E 025°18'8 7.8
2014-Jul-23 14:28N 36°23' E 025°26'0 0.0
2014-Jul-23 13:24N 36°23' E 025°26'0 0.0
2014-Jul-23 12:30N 36°23' E 025°26'0 0.0
2014-Jul-23 11:12N 36°23' E 025°26'0 0.0
2014-Jul-23 10:28N 36°23' E 025°26'0 0.0
2014-Jul-23 09:04N 36°23' E 025°26'0 0.3
2014-Jul-23 08:33N 36°23' E 025°26'2222.2
2014-Jul-23 07:34N 36°03' E 025°15'2625.6
2014-Jul-23 06:33N 35°38' E 025°07'1817.8
2014-Jul-23 05:33N 35°21' E 025°08'0 0.0
2014-Jul-23 04:26N 35°21' E 025°08'0 0.0
2014-Jul-23 03:32N 35°21' E 025°08'0 0.0
2014-Jul-23 02:33N 35°21' E 025°08'0 0.0
2014-Jul-23 00:33N 35°21' E 025°08'0 0.0
2014-Jul-22 23:29N 35°21' E 025°08'0 0.0
2014-Jul-22 22:31N 35°21' E 025°08'0 0.0
2014-Jul-22 17:11N 35°21' E 025°08'0 0.0
2014-Jul-22 12:32N 35°21' E 025°08'0 0.0
2014-Jul-22 07:30N 35°21' E 025°08'0 0.0
2014-Jul-22 04:32N 35°21' E 025°08'0 0.0
2014-Jul-22 03:33N 35°21' E 025°08'0 0.0
2014-Jul-22 02:22N 35°21' E 025°08'0 0.0
2014-Jul-21 21:26N 35°21' E 025°08'0 0.0
2014-Jul-21 20:30N 35°21' E 025°08'0 0.0
2014-Jul-21 20:14N 35°21' E 025°08'27 7.2
2014-Jul-21 16:32N 35°47' E 025°13'2626.5
2014-Jul-21 15:33N 36°13' E 025°19'1210.1
2014-Jul-21 14:23N 36°23' E 025°26'0 0.0
2014-Jul-21 13:07N 36°23' E 025°26'0 0.0
2014-Jul-21 12:25N 36°23' E 025°26'0 0.0
2014-Jul-21 11:12N 36°23' E 025°26'0 0.0
2014-Jul-21 10:32N 36°23' E 025°26'0 0.0
2014-Jul-21 09:25N 36°23' E 025°26'2 1.9
2014-Jul-21 08:33N 36°23' E 025°24'2624.8
2014-Jul-21 07:32N 35°59' E 025°15'8 0.6
2014-Jul-20 16:25N 35°50' E 025°14'2326.9
2014-Jul-20 15:33N 36°13' E 025°19'1210.8
2014-Jul-20 14:29N 36°23' E 025°26'0 0.0
2014-Jul-20 13:08N 36°23' E 025°26'0 0.0
2014-Jul-20 12:32N 36°23' E 025°26'0 0.0
2014-Jul-20 11:33N 36°23' E 025°26'0 0.0
2014-Jul-20 10:33N 36°23' E 025°26'0 0.0
2014-Jul-20 09:29N 36°23' E 025°26'2 1.9
2014-Jul-20 08:33N 36°23' E 025°23'2322.7
2014-Jul-20 07:33N 36°01' E 025°16'41 3.9
2014-Jul-19 21:07N 35°21' E 025°08'0 0.0
2014-Jul-19 20:11N 35°21' E 025°08'8 9.9
2014-Jul-19 19:25N 35°26' E 025°01'28 9.8
2014-Jul-19 16:31N 35°53' E 024°55'2425.0
2014-Jul-19 15:33N 36°13' E 025°13'1513.9
2014-Jul-19 14:30N 36°23' E 025°26'2 2.2
2014-Jul-19 13:33N 36°24' E 025°23'0 0.0
2014-Jul-19 12:32N 36°24' E 025°23'0 0.0
2014-Jul-19 11:33N 36°24' E 025°23'0 0.0
2014-Jul-19 10:33N 36°24' E 025°23'0 0.0
2014-Jul-19 09:33N 36°24' E 025°23'2 2.0
2014-Jul-19 08:33N 36°23' E 025°26'2322.5
2014-Jul-19 07:34N 36°07' E 025°07'2424.0
2014-Jul-19 06:34N 35°47' E 024°49'31 5.9
2014-Jul-19 01:19N 35°21' E 025°08'0 0.0
2014-Jul-19 00:19N 35°21' E 025°08'0 0.0
2014-Jul-18 23:15N 35°21' E 025°08'32 4.8
2014-Jul-18 16:33N 35°52' E 025°14'2524.7
2014-Jul-18 15:34N 36°17' E 025°20'8 8.1
2014-Jul-18 14:33N 36°23' E 025°26'0 0.0
2014-Jul-18 13:33N 36°23' E 025°26'1 0.6
2014-Jul-18 12:32N 36°24' E 025°25'1 0.6
2014-Jul-18 11:27N 36°23' E 025°26'0 0.0
2014-Jul-18 10:31N 36°23' E 025°26'0 0.0
2014-Jul-18 09:28N 36°23' E 025°26'3 3.7
2014-Jul-18 08:33N 36°23' E 025°22'2423.8
2014-Jul-18 07:33N 35°59' E 025°16'2624.2
2014-Jul-18 06:29N 35°33' E 025°12'13 2.5
2014-Jul-18 01:19N 35°21' E 025°08'29 3.1
2014-Jul-17 16:05N 35°49' E 025°16'1527.6
2014-Jul-17 15:34N 36°03' E 025°19'2120.4
2014-Jul-17 14:32N 36°23' E 025°26'2 2.1
2014-Jul-17 13:32N 36°24' E 025°23'0 0.0
2014-Jul-17 12:33N 36°24' E 025°23'0 0.0
2014-Jul-17 11:30N 36°24' E 025°23'0 0.0
2014-Jul-17 10:33N 36°24' E 025°23'0 0.0
2014-Jul-17 09:33N 36°24' E 025°23'0 0.2
2014-Jul-17 08:33N 36°24' E 025°23'1212.5
2014-Jul-17 07:34N 36°12' E 025°18'19 1.2
2014-Jul-16 16:07N 35°53' E 025°16'1528.1
2014-Jul-16 15:34N 36°09' E 025°18'15 7.7
2014-Jul-16 13:33N 36°24' E 025°23'0 0.0
2014-Jul-16 12:33N 36°24' E 025°23'0 0.0
2014-Jul-16 11:33N 36°24' E 025°23'0 0.0
2014-Jul-16 10:33N 36°24' E 025°23'0 0.0
2014-Jul-16 09:32N 36°24' E 025°23'1 1.2
2014-Jul-16 08:33N 36°23' E 025°24'2524.7
2014-Jul-16 07:34N 35°59' E 025°15'39 1.9
2014-Jul-15 11:25N 35°21' E 025°08'  

Dump ship's entire track history